Wind_Speed
71 77 87 86 90 94 95 99 97 92 86 80 75 72 69 59 59 59 62 61 63 65 58 54 49 53 59 65 78 87 93 97 97 100 104 108 107 108 106 102 97 93 84 81 69
78 84 85 89 94 94 95 98 95 91 84 80 76 73 72 62 62 63 64 63 64 61 46 45 44 48 54 59 71 82 88 99 99 102 105 105 107 108 106 100 97 95 88 77 65
84 88 89 92 93 93 96 96 92 90 85 81 75 73 70 64 64 65 65 65 61 51 40 39 40 41 51 56 67 77 83 94 99 102 105 105 106 108 105 103 98 94 90 85 85
86 89 93 90 95 93 98 95 91 91 84 81 78 72 68 66 68 68 66 62 54 42 34 34 35 40 49 53 65 75 83 91 100 103 104 105 105 107 107 103 102 93 92 84 86
89 93 95 92 96 95 95 93 91 90 83 82 78 73 70 68 70 69 66 59 46 38 31 30 33 42 49 56 64 71 79 89 96 102 103 103 102 104 111 108 104 100 95 91 82
93 95 95 96 94 94 91 91 88 87 82 81 76 72 69 70 74 74 67 53 41 36 32 29 32 42 52 58 65 72 80 89 94 100 102 102 102 104 113 113 108 103 98 91 83
98 98 94 95 95 86 87 82 84 85 82 81 76 71 70 73 74 70 65 49 38 34 31 27 32 42 53 60 69 78 85 92 99 100 103 105 103 104 115 116 112 106 100 94 87
100 98 95 97 85 81 79 78 81 82 80 79 74 71 69 75 74 71 62 51 36 34 30 28 33 44 56 61 69 78 84 93 100 102 101 102 105 105 107 119 115 111 105 98 92
98 96 94 84 79 80 76 76 79 80 79 77 72 69 67 75 75 69 63 51 36 34 28 28 32 44 54 67 73 79 85 93 100 96 106 101 103 102 103 114 117 113 108 102 96
92 86 85 77 78 75 72 71 76 75 78 76 69 68 66 73 72 70 62 48 36 29 24 27 30 43 56 68 72 76 80 87 91 95 100 102 100 102 103 109 116 113 113 108 103
80 80 75 72 69 67 66 68 73 74 78 74 69 68 67 71 70 72 59 45 36 26 20 23 30 43 54 66 70 72 76 85 92 91 94 102 105 109 107 106 112 116 113 111 110
74 69 66 65 62 62 62 66 68 73 79 72 68 65 67 72 71 68 57 41 33 24 18 18 29 40 53 65 70 71 77 84 91 90 91 99 107 104 105 108 109 114 112 110 112
72 68 66 61 57 57 57 62 65 72 77 68 67 61 69 70 69 68 54 37 30 21 12 16 27 37 50 63 71 73 78 81 83 88 92 98 104 100 99 104 106 106 112 112 110
69 64 61 58 53 51 53 56 62 71 75 67 65 62 68 66 68 63 51 35 27 18 6 7 24 39 51 62 69 74 77 82 87 87 90 93 99 99 98 99 96 100 101 109 112
62 58 55 50 49 46 48 51 60 69 73 65 64 59 64 62 65 60 49 33 25 16 4 12 21 33 46 58 66 72 74 78 80 86 88 90 92 94 95 93 93 98 102 108 107
57 54 48 43 44 42 44 49 58 65 72 66 61 57 60 61 62 57 48 31 24 15 5 10 22 32 42 51 62 68 72 76 76 81 84 86 83 87 90 89 91 95 99 100 99
54 47 38 37 38 37 40 45 53 60 65 63 56 57 59 61 63 57 46 31 21 16 8 8 17 28 39 45 55 59 64 68 73 76 79 79 75 80 84 87 87 86 90 94 99
49 40 34 34 33 32 36 41 51 56 60 60 54 55 60 62 61 57 46 35 22 17 11 9 15 23 34 41 49 54 54 61 66 67 69 74 73 74 76 79 77 77 81 85 92
45 37 35 33 31 29 32 41 46 49 53 59 52 52 59 60 59 57 51 41 27 19 14 10 14 22 30 37 44 51 53 56 59 63 67 70 71 70 70 73 75 76 79 81 87
43 37 34 32 25 26 31 37 42 43 47 54 47 49 55 59 58 59 54 47 36 22 14 10 13 22 28 35 41 44 49 54 55 58 61 64 67 65 67 70 73 76 77 76 79
40 39 30 28 20 23 28 34 36 38 43 47 48 47 51 56 57 58 52 48 41 29 16 11 5 13 26 36 43 46 51 53 56 55 56 59 64 66 68 68 70 71 73 74 74
42 39 29 23 19 22 26 30 31 32 36 41 42 45 50 53 58 58 56 50 45 34 24 12 7 4 12 28 37 42 48 50 53 53 53 54 59 64 65 66 68 69 68 69 72
46 37 28 23 19 21 23 26 26 27 30 33 42 42 47 51 57 56 55 53 50 40 30 21 8 3 4 8 24 33 39 44 47 50 52 55 59 62 62 60 62 66 68 70 72
44 36 28 23 20 18 19 22 22 25 26 28 38 40 45 50 53 57 52 51 52 44 36 26 15 4 3 9 14 23 32 36 42 46 49 52 55 58 60 63 65 67 70 73 76
42 34 28 24 19 15 16 19 20 22 21 27 30 41 44 48 53 57 55 53 50 47 40 32 24 15 3 5 10 15 19 27 37 41 45 52 51 54 57 60 62 65 68 71 73
41 35 29 23 19 14 14 17 17 20 19 23 26 35 43 47 51 54 56 51 47 49 45 39 32 24 11 5 8 13 17 21 26 32 43 45 51 55 57 58 60 63 67 68 69
41 34 29 24 17 14 14 13 15 18 17 20 29 29 37 45 48 53 52 53 53 49 45 42 40 33 22 12 9 10 16 20 24 26 30 37 46 47 54 57 62 63 62 63 67
Wind_Direction
314 314 318 318 321 323 322 323 324 323 321 321 325 325 326 324 324 323 317 310 302 295 286 278 263 252 240 231 222 218 213 212 208 210 212 214 218 220 219 218 218 223 214 218 226
309 313 315 318 318 320 320 323 322 320 320 320 324 323 326 326 324 325 320 313 305 295 284 271 259 249 239 228 222 217 212 211 208 209 210 212 215 219 219 217 219 221 219 213 200
305 308 311 314 316 318 318 320 319 318 319 320 324 324 328 327 327 327 321 316 305 295 281 267 254 242 234 224 218 216 211 211 210 209 210 210 213 217 220 216 217 220 221 215 215
302 304 307 311 313 315 314 315 317 317 317 320 323 325 329 328 330 327 322 315 305 293 281 266 251 234 229 218 217 215 209 210 210 210 211 209 210 212 219 217 215 214 220 218 215
298 301 306 308 310 311 312 314 315 314 316 319 322 327 332 330 330 328 323 318 307 296 286 269 245 227 220 215 213 212 208 211 211 212 211 210 209 210 214 220 215 213 218 222 216
296 298 302 305 307 308 310 312 313 313 315 319 323 330 333 333 333 328 323 322 310 297 288 266 239 221 216 212 209 207 208 210 212 213 211 210 208 209 209 218 216 216 213 218 220
293 295 299 303 303 306 309 311 312 312 315 319 323 332 335 334 334 329 331 325 313 302 289 263 235 220 212 207 209 205 206 207 211 211 212 210 208 207 208 214 216 214 215 211 223
289 291 295 297 301 307 307 311 311 313 315 319 326 333 336 335 334 331 332 331 321 306 289 258 230 217 209 204 206 205 205 207 210 210 211 211 209 208 209 210 218 215 216 213 217
284 288 289 295 299 303 306 309 310 312 316 320 329 336 338 338 335 336 336 333 323 307 283 256 232 214 206 202 205 206 206 207 210 210 207 209 211 209 209 211 215 219 212 212 210
281 283 287 291 298 302 306 307 309 314 316 320 331 336 342 341 338 339 337 333 325 309 277 248 224 213 205 203 205 206 205 209 212 211 210 212 212 211 211 211 212 217 217 212 211
277 281 285 290 295 299 304 305 311 314 315 323 332 340 342 343 341 342 338 335 325 313 279 243 217 208 206 203 203 205 203 209 212 213 210 211 213 211 210 211 212 212 220 217 211
271 279 283 290 294 298 301 305 311 314 314 326 335 342 343 346 348 345 341 337 327 318 286 236 213 208 203 201 200 201 202 207 212 213 211 213 216 214 211 212 212 213 213 220 218
269 273 278 285 292 296 300 307 311 313 315 328 336 341 342 347 349 345 343 340 330 322 302 225 206 199 202 201 198 195 203 205 211 214 212 211 218 217 215 214 214 215 216 217 222
264 267 274 280 288 294 299 306 310 310 316 327 335 344 344 350 350 349 347 343 337 331 315 214 201 195 199 200 201 200 205 204 208 212 215 213 217 218 219 218 215 218 219 219 218
256 262 270 278 282 290 298 305 307 310 317 327 336 342 346 353 354 353 353 348 347 342 356 170 186 199 200 201 199 203 205 206 208 211 216 218 216 220 222 221 218 218 218 221 221
249 255 265 272 279 288 298 304 307 312 317 327 338 342 347 358 358 357 359 355 356 358 14 162 179 189 201 201 202 204 205 209 208 211 216 220 218 221 224 225 223 221 221 221 223
240 246 257 265 274 286 296 304 307 315 318 328 338 342 350 359 3 1 4 5 7 12 32 134 178 188 198 203 204 208 209 211 211 213 217 222 220 222 223 227 229 225 224 223 223
230 238 244 257 270 283 294 301 307 316 320 328 338 345 352 2 6 8 12 17 21 30 31 121 164 179 195 201 205 211 215 212 213 215 218 222 223 224 227 229 230 231 228 225 226
220 226 235 250 264 280 289 299 309 318 323 329 340 349 353 3 10 16 19 21 31 41 51 104 148 174 190 199 206 210 213 216 217 217 219 222 224 226 227 229 231 232 231 227 226
211 214 227 246 258 273 288 298 311 319 325 330 342 352 358 2 13 15 21 24 28 40 48 49 146 168 186 199 207 213 217 220 222 220 221 224 228 227 227 229 230 229 232 231 230
198 210 219 235 249 267 286 301 312 321 330 335 344 354 5 3 13 17 22 24 26 32 42 57 76 188 190 193 205 212 215 219 225 225 223 223 228 231 230 229 232 232 232 233 235
193 207 215 224 237 264 285 301 312 322 333 336 346 355 5 7 14 14 21 26 27 30 35 46 79 95 225 212 212 213 216 219 224 228 231 231 231 234 234 232 233 235 237 238 239
192 205 203 214 235 261 284 298 311 321 337 341 346 355 4 10 12 16 15 23 26 26 30 35 36 100 153 212 226 225 223 224 225 228 230 232 234 236 237 238 238 238 240 241 240
197 192 196 213 229 255 280 293 310 323 343 347 352 1 6 10 14 16 16 18 16 22 22 26 30 30 197 202 208 226 231 228 231 234 234 233 234 236 239 239 238 238 240 241 243
190 183 192 211 222 248 272 292 309 328 346 351 1 0 5 14 14 16 18 17 18 22 24 25 22 15 2 228 217 221 229 235 234 233 234 236 237 238 238 239 239 240 242 244 245
177 179 192 204 216 240 266 289 311 331 352 352 6 5 4 13 15 16 17 24 23 17 21 20 22 20 2 316 252 238 232 233 237 239 239 239 239 238 239 240 241 240 240 243 247
172 180 194 199 214 229 255 283 310 329 351 351 10 7 14 11 13 17 19 19 21 23 21 20 13 17 23 5 326 277 251 246 245 245 245 241 244 246 245 245 244 244 243 243 244
Height
10749 10743 10737 10730 10724 10716 10707 10699 10686 10675 10664 10652 10643 10629 10618 10611 10601 10592 10577 10563 10548 10536 10530 10522 10520 10519 10524 10535 10545 10555 10572 10595 10620 10640 10659 10672 10689 10699 10721 10741 10759 10766 10791 10799 10810
10740 10734 10729 10722 10714 10708 10698 10687 10676 10665 10654 10643 10631 10617 10604 10595 10585 10573 10558 10543 10531 10517 10513 10504 10504 10505 10514 10523 10535 10544 10563 10582 10605 10623 10638 10660 10676 10687 10709 10732 10748 10757 10777 10797 10808
10730 10725 10721 10715 10706 10700 10689 10679 10666 10655 10642 10633 10620 10604 10590 10580 10569 10553 10539 10524 10510 10499 10495 10491 10492 10498 10501 10510 10523 10533 10557 10573 10591 10610 10624 10645 10664 10682 10697 10719 10736 10747 10761 10783 10791
10722 10715 10711 10705 10698 10690 10680 10670 10657 10644 10633 10622 10607 10593 10581 10567 10552 10537 10524 10509 10492 10484 10481 10478 10481 10488 10490 10502 10512 10526 10544 10558 10575 10594 10614 10632 10652 10674 10687 10705 10719 10735 10747 10766 10778
10712 10705 10701 10694 10689 10682 10670 10659 10648 10634 10624 10611 10596 10581 10569 10555 10538 10523 10509 10492 10479 10469 10466 10465 10469 10474 10480 10492 10501 10520 10535 10548 10565 10583 10602 10621 10644 10667 10679 10688 10709 10725 10734 10749 10767
10701 10696 10692 10686 10680 10672 10661 10649 10638 10624 10614 10601 10586 10572 10558 10542 10526 10507 10492 10479 10465 10457 10452 10452 10455 10462 10470 10480 10492 10508 10524 10538 10553 10571 10589 10610 10631 10654 10670 10674 10694 10710 10729 10738 10752
10691 10686 10681 10678 10672 10663 10651 10640 10628 10616 10604 10591 10575 10561 10547 10532 10516 10495 10476 10462 10452 10445 10440 10440 10444 10450 10460 10470 10479 10492 10504 10524 10537 10556 10575 10597 10616 10635 10656 10664 10679 10699 10716 10730 10740
10678 10675 10672 10670 10662 10653 10642 10631 10619 10608 10595 10580 10566 10553 10538 10520 10503 10482 10464 10449 10441 10433 10430 10429 10432 10438 10447 10462 10469 10481 10493 10508 10521 10539 10564 10584 10603 10624 10644 10657 10665 10687 10704 10723 10732
10665 10663 10661 10660 10651 10644 10632 10622 10611 10600 10586 10572 10559 10544 10532 10513 10491 10472 10452 10438 10432 10423 10420 10419 10422 10429 10440 10447 10457 10468 10483 10498 10511 10533 10554 10569 10591 10612 10631 10645 10656 10672 10695 10711 10724
10652 10650 10650 10649 10642 10634 10624 10613 10604 10593 10577 10565 10552 10537 10521 10505 10484 10461 10443 10430 10423 10417 10412 10411 10414 10421 10429 10436 10451 10464 10482 10496 10508 10527 10543 10558 10579 10599 10617 10631 10647 10658 10674 10694 10708
10637 10638 10638 10638 10633 10625 10616 10605 10597 10586 10569 10558 10543 10527 10513 10497 10476 10454 10438 10424 10414 10408 10404 10403 10406 10412 10422 10433 10446 10462 10476 10490 10499 10516 10535 10552 10560 10574 10594 10614 10630 10645 10658 10678 10693
10622 10626 10627 10627 10623 10616 10608 10599 10591 10580 10562 10555 10535 10520 10508 10491 10466 10447 10431 10418 10408 10402 10397 10396 10398 10406 10417 10428 10441 10455 10470 10482 10491 10508 10525 10539 10547 10564 10584 10598 10617 10633 10649 10662 10679
10607 10612 10616 10617 10615 10609 10600 10594 10586 10573 10557 10549 10532 10518 10502 10485 10464 10443 10427 10415 10405 10397 10393 10392 10394 10402 10412 10423 10437 10449 10461 10478 10490 10499 10512 10529 10537 10560 10576 10590 10607 10625 10640 10655 10663
10593 10599 10604 10608 10606 10600 10594 10589 10581 10567 10553 10546 10527 10514 10499 10482 10462 10443 10424 10412 10401 10394 10388 10390 10392 10398 10407 10419 10431 10443 10451 10467 10478 10494 10505 10521 10531 10548 10563 10578 10604 10619 10634 10646 10659
10578 10586 10592 10599 10596 10592 10589 10585 10576 10563 10549 10540 10524 10511 10498 10480 10460 10441 10423 10409 10399 10392 10387 10387 10391 10399 10405 10416 10429 10440 10451 10463 10475 10486 10498 10510 10524 10540 10554 10571 10593 10605 10615 10624 10640
10565 10575 10584 10590 10587 10585 10583 10579 10570 10560 10546 10536 10521 10507 10496 10479 10460 10440 10423 10409 10399 10392 10389 10390 10392 10398 10405 10416 10428 10438 10450 10459 10472 10482 10493 10501 10521 10537 10549 10556 10572 10589 10603 10617 10631
10552 10564 10575 10580 10579 10579 10578 10574 10567 10558 10544 10537 10521 10505 10493 10478 10461 10442 10424 10411 10401 10395 10393 10393 10395 10401 10408 10418 10429 10439 10449 10457 10468 10478 10488 10497 10515 10528 10539 10549 10560 10574 10590 10604 10614
10542 10553 10566 10570 10572 10573 10573 10569 10563 10556 10541 10534 10520 10504 10489 10475 10460 10442 10427 10415 10405 10399 10397 10398 10400 10405 10413 10420 10429 10439 10448 10458 10467 10477 10488 10496 10508 10520 10530 10540 10550 10563 10576 10590 10599
10531 10544 10556 10562 10566 10568 10567 10564 10560 10553 10542 10531 10519 10505 10487 10474 10459 10443 10429 10418 10410 10404 10402 10402 10405 10410 10415 10422 10430 10439 10446 10454 10464 10472 10479 10490 10499 10512 10522 10531 10539 10547 10555 10567 10578
10521 10536 10547 10554 10560 10562 10563 10559 10556 10551 10542 10529 10522 10507 10488 10473 10461 10447 10432 10422 10415 10411 10408 10408 10410 10413 10418 10424 10430 10438 10445 10450 10457 10466 10476 10484 10491 10504 10512 10517 10523 10531 10542 10554 10564
10513 10528 10538 10547 10553 10556 10558 10554 10553 10549 10541 10526 10520 10508 10493 10474 10462 10451 10440 10429 10422 10416 10414 10413 10415 10416 10417 10421 10426 10433 10439 10446 10451 10460 10469 10478 10485 10489 10496 10505 10512 10520 10529 10537 10547
10506 10521 10531 10540 10548 10551 10553 10550 10550 10547 10541 10527 10522 10509 10494 10478 10464 10452 10446 10437 10427 10421 10417 10417 10417 10418 10422 10423 10424 10429 10435 10443 10449 10456 10464 10471 10476 10479 10487 10495 10503 10511 10519 10527 10534
10498 10513 10525 10535 10542 10546 10548 10545 10546 10544 10540 10530 10519 10511 10497 10484 10468 10458 10445 10437 10432 10426 10421 10417 10417 10418 10421 10424 10427 10429 10433 10438 10444 10450 10456 10462 10466 10470 10477 10486 10495 10501 10505 10508 10514
10496 10507 10519 10530 10536 10541 10543 10541 10542 10540 10538 10530 10518 10514 10500 10487 10474 10462 10452 10442 10435 10429 10425 10423 10421 10420 10420 10421 10424 10427 10431 10435 10440 10444 10447 10452 10456 10462 10469 10473 10479 10486 10491 10494 10496
10489 10502 10515 10525 10531 10536 10537 10537 10539 10538 10536 10528 10520 10509 10501 10490 10479 10467 10458 10446 10439 10435 10429 10424 10420 10419 10418 10419 10420 10423 10426 10428 10431 10436 10442 10440 10449 10453 10456 10462 10469 10474 10478 10479 10482
10484 10498 10510 10519 10526 10531 10532 10533 10534 10533 10533 10527 10522 10513 10500 10494 10485 10476 10464 10456 10446 10435 10431 10426 10423 10420 10418 10418 10418 10419 10420 10422 10425 10427 10428 10434 10435 10440 10443 10447 10452 10456 10459 10464 10468
10481 10495 10506 10514 10521 10525 10528 10529 10530 10530 10530 10526 10522 10515 10506 10495 10488 10480 10472 10460 10449 10444 10438 10429 10424 10420 10418 10417 10417 10417 10417 10417 10417 10420 10422 10424 10423 10434 10433 10434 10434 10438 10445 10450 10452